Location: Pacheco
(37.9835°N, 122.0752°W)
Time: 10:10:43
(UTC+00:00)

YAOGAN 6 - Visible Passes

Search period start: 24 July 2024 00:00
Search period end: 03 August 2024 00:00
Orbit: 405 x 429 km, 97.2° (Epoch: 23 July)

Date Brightness Start Highest point End Pass type
(mag) Time Alt. Az. Time Alt. Az. Time Alt. Az.
24 Jul 3.9 11:23:34 10° NNE 11:26:27 31° E 11:28:55 13° SSE visible
25 Jul 2.7 12:10:25 10° N 12:13:29 44° WNW 12:16:22 11° SSW visible
26 Jul 3.8 11:25:28 10° NNE 11:28:25 33° E 11:30:47 14° SSE visible
27 Jul 2.8 12:12:16 10° N 12:15:19 41° WNW 12:18:07 12° SW visible
28 Jul 3.7 11:27:09 10° NNE 11:30:09 35° E 11:32:26 15° SSE visible
29 Jul 2.9 12:13:54 10° N 12:16:56 39° WNW 12:19:39 12° SW visible
30 Jul 3.6 11:28:38 10° NNE 11:31:40 36° E 11:33:52 16° SSE visible
31 Jul 2.9 12:15:19 10° N 12:18:19 37° WNW 12:20:58 12° SW visible
01 Aug 3.5 11:29:55 10° NNE 11:32:58 38° E 11:35:03 17° SSE visible
02 Aug 3.0 12:16:30 10° N 12:19:30 36° WNW 12:22:03 13° SW visible
